Location: Bouillancy
(49.1149°N, 2.9308°E)
Time: 07:58:23
(UTC+00:00)

Exosat Rocket - Pass Details

Date: 30 September 2020
Orbit: 760 x 2514 km, 72.3° (Epoch: 30 October)

Event Time Altitude Azimuth Distance (km) Brightness Sun altitude
Rises 18:43:51 0° 211° (SSW) 3,384 7.1 -13.1°
Reaches altitude 10° 18:46:20 10° 213° (SSW) 2,362 6.3 -13.5°
Maximum altitude 18:51:25 71° 298° (WNW) 806 3.8 -14.4°
Drops below altitude 10° 18:56:35 10° 23° (NNE) 2,397 6.0 -15.2°
Sets 18:59:07 0° 26° (NNE) 3,440 6.7 -15.6°
